Hourly Data Report for February 08, 2019

MIRAMICHI RCS
NEW BRUNSWICK
Current Station Operator: ECCC - MSC

47°00'34.000" N
65°27'54.000" W
33.00 m
8100989
71744
ACQ

Download Data

Hourly Data (February 2019)
Hourly Data Report for February 8, 2019
TIME
LST
Temp Definition
°C
Dew Point Definition
°C
Rel Hum Definition
%
Precip. Amount Definition
mm

Wind Dir Definition
10's deg

Wind Spd Definition
km/h
Visibility Definition
km
Stn Press Definition
kPa
Hmdx Definition


Wind Chill Definition


Weather Definition


00:00 -6.7 -8.0 90 0.0 7 8   102.11   -11 LegendNANA
01:00 -6.6 -8.0 90 0.0 8 14   101.99   -12 LegendNANA
02:00 -6.6 -7.9 90 0.0 7 8   101.86   -10 LegendNANA
03:00 -6.3 -7.7 90 0.0 9 7   101.81   -10 LegendNANA
04:00 -6.2 -7.6 90 0.0 6 9   101.65   -10 LegendNANA
05:00 -6.0 -7.3 91 0.0 8 10   101.47   -10 LegendNANA
06:00 -5.9 -7.1 91 0.0 5 11   101.32   -11 LegendNANA
07:00 -5.8 -6.7 93 0.0 6 12   101.12   -11 LegendNANA
08:00 -4.7 -5.3 96 0.0 7 12   100.90   -9 LegendNANA
09:00 -3.1 -4.0 94 0.0 10 13   100.71   -8 LegendNANA
10:00 -2.3 -3.0 95 0.2 10 10   100.48   -6 LegendNANA
11:00 -1.5 -2.4 93 0.0 13 12   100.28   -6 LegendNANA
12:00 -1.5 -2.3 95 0.0 12 8   99.92   -5 LegendNANA
13:00 -0.7 -1.6 94 0.5   0   99.75     LegendNANA
14:00 -0.5 -1.1 95 0.6   0   99.64     LegendNANA
15:00 -0.5 -1.1 96 0.6   0   99.44     LegendNANA
16:00 -0.1 -0.8 95 0.8   0   99.38     LegendNANA
17:00 0.5 -0.3 94 0.3   0   99.26     LegendNANA
18:00 1.1 0.2 94 0.0 23 24   99.24     LegendNANA
19:00 1.4 0.0 91 0.2 24 26   99.28     LegendNANA
20:00 1.2 -1.6 82 0.0 24 21   99.31     LegendNANA
21:00 1.3 -1.3 83 0.0 24 23   99.30     LegendNANA
22:00 0.3 -4.0 73 0.0 26 24   99.37     LegendNANA
23:00 -0.9 -4.0 79 0.0 25 17   99.37   -6 LegendNANA

Notes on Data Quality.

Legend

  • E = Estimated
  • M = Missing
  • NA = Not Available*
  • [empty] = Indicates an unobserved value
Date modified: